Content
SEND FEEDBACK

Daily
Averages
Monthly
Summary
United States of America

CHICAGO, ILLINOIS


Home > North America > United States > Illinois
Elevation: 674 feet     Latitude: 41 59N     Longitude: 087 54W

WEATHER
 
SELECT A DAY
Number of Records: 195,010;   Date Range: 7/8/95 - 8/30/14
 
SHARE

PRINT THIS DATA

[ ← Previous Day ]
WEATHER ALMANAC - APRIL 19, 2014
[ Next Day → ]
[ °C ]   °F
Weather ElementAverageHighLow
Temperature49.2 °F62.1 °F (3:52 pm)37 °F (5:52 am)
Dewpoint35 °F39.9 °F (2:52 pm)28 °F (1:52 am)
Humidity59.2 %73 % (5:52 am)43 % (3:52 pm)
Barometer30.33 in30.42 in (7:52 am)30.25 in (5:52 pm)
Wind Speed5.9 mph11.5 mph (8:52 am)
Weather ElementAverage
Visibility10 mi
Wind DirectionENE (70 °)

Weather ElementTotal
Precipitation---
Heating Degree Days15.5 (Base 65)
Averaged from 21 records on April 19, 2014
WEATHER CONDITIONS BREAKOUT
WIND DIRECTION BREAKOUT
WEATHER BY HOUR - APRIL 19, 2014
[ °C ]   °F
Local TimeTemperatureDewpointHumidityBarometerVisibilityWind DirectionWind SpeedGust SpeedPrecipitationEventsConditions
1:52 AM37.9 °F28.0 °F68 %30.40 in10.0 miNE (50°)6.9 mphClear
2:52 AM37.9 °F28.9 °F70 %30.40 in10.0 miENE (60°)4.6 mphClear
4:52 AM37.9 °F28.9 °F70 %30.40 in10.0 miNE (50°)6.9 mphClear
5:52 AM37.0 °F28.9 °F73 %30.41 in10.0 miENE (70°)3.5 mphClear
7:52 AM39.9 °F30.9 °F70 %30.42 in10.0 miEast (80°)10.4 mphClear
8:52 AM43.0 °F32.0 °F65 %30.42 in10.0 miEast (100°)11.5 mphClear
9:52 AM45.0 °F34.0 °F65 %30.41 in10.0 miESE (110°)6.9 mphClear
10:52 AM48.0 °F36.0 °F63 %30.39 in10.0 miVariable5.8 mphClear
11:52 AM51.1 °F37.0 °F59 %30.38 in10.0 miVariable4.6 mphClear
12:52 PM54.0 °F37.9 °F55 %30.37 in10.0 miVariable5.8 mphClear
1:52 PM57.0 °F37.9 °F49 %30.34 in10.0 miEast (100°)6.9 mphClear
2:52 PM60.1 °F39.9 °F47 %30.32 in10.0 miSE (130°)9.2 mphClear
3:52 PM62.1 °F39.0 °F43 %30.28 in10.0 miESE (120°)9.2 mphClear
4:52 PM61.0 °F39.0 °F44 %30.27 in10.0 miEast (100°)9.2 mphClear
5:52 PM59.0 °F37.0 °F44 %30.25 in10.0 miEast (80°)6.9 mphClear
6:52 PM55.0 °F36.0 °F49 %30.25 in10.0 miEast (90°)4.6 mphClear
7:52 PM52.0 °F36.0 °F54 %30.25 in10.0 miCalmClear
8:52 PM50.0 °F36.0 °F59 %30.26 in10.0 miEast (80°)3.5 mphClear
9:52 PM48.9 °F37.0 °F64 %30.26 in10.0 miSE (130°)3.5 mphClear
10:52 PM48.0 °F37.0 °F66 %30.26 in10.0 miESE (120°)3.5 mphClear
11:52 PM48.0 °F37.0 °F66 %30.25 in10.0 miCalmClear
Hourly data recorded from KPWK, located miles away from Chicago, Illinois







STORIES FROM OUR PARTNERS